Change the Weather History Date:

Monday, January 20, 2014

  Actual Average Record
Temperature  
Mean Temperature 24 °F -  
Max Temperature 35 °F 29 °F 49 °F (1967)
Min Temperature 12 °F 12 °F -25 °F (1985)
Degree Days  
Heating Degree Days 42    
Moisture  
Dew Point 21 °F    
Average Humidity 80    
Maximum Humidity 93    
Minimum Humidity 70    
Precipitation  
Precipitation 0.00 in - - ()
Sea Level Pressure  
Sea Level Pressure 29.92 in    
Wind  
Wind Speed 13 mph (NW)    
Max Wind Speed 25 mph    
Max Gust Speed 32 mph    
Visibility 8 miles    
Events      
Averages and records for this station are not official NWS values.
T = Trace of Precipitation, MM = Missing Value Source: NWS Daily Summary

Daily Weather History Graph

Daily Weather History Graph

Search for Another Location

Airport or City:

Trip Planner

Search our weather history database for the weather conditions in past years. The results will help you decide how hot, cold, wet, or windy it might be!

Date:

Astronomy

Jan. 20, 2014 Rise Set
Actual Time 7:23 AM CST 5:01 PM CST
Civil Twilight 6:53 AM CST 5:31 PM CST
Nautical Twilight 6:19 AM CST 6:06 PM CST
Astronomical Twilight 5:46 AM CST 6:39 PM CST
Moon 9:41 PM CST (1/20) 9:18 AM CST (1/20)
Length of Visible Light 10h 38m
Length of Day
9h 37m
Waning Gibbous, 82% of the Moon is Illuminated
Jan 20
Waning Gibbous
Jan 23
Last Quarter
Jan 30
New
Feb 6
First Quarter
Feb 14
Full

Hourly Weather History & Observations

Time (CST) Temp. Windchill Dew Point Humidity Pressure Visibility Wind Dir Wind Speed Gust Speed Precip Events Conditions
12:15 AM 35.6 °F 26.2 °F 28.4 °F 75% 29.71 in 10.0 mi NW 15.0 mph - N/A   Overcast
12:35 AM 35.6 °F 27.1 °F 28.4 °F 75% 29.72 in 10.0 mi NW 12.7 mph - N/A   Overcast
12:55 AM 35.6 °F 26.6 °F 28.4 °F 75% 29.72 in 10.0 mi NW 13.8 mph - N/A   Overcast
1:15 AM 35.6 °F 27.1 °F 28.4 °F 75% 29.73 in 10.0 mi NW 12.7 mph - N/A   Overcast
1:35 AM 33.8 °F 24.8 °F 26.6 °F 75% 29.73 in 10.0 mi NW 12.7 mph - N/A   Overcast
1:55 AM 33.8 °F 24.3 °F 26.6 °F 75% 29.76 in 10.0 mi NW 13.8 mph - N/A   Overcast
2:15 AM 33.8 °F 24.8 °F 26.6 °F 75% 29.76 in 10.0 mi NW 12.7 mph - N/A   Mostly Cloudy
2:35 AM 32.0 °F 23.0 °F 24.8 °F 75% 29.78 in 10.0 mi NW 11.5 mph - N/A   Partly Cloudy
2:55 AM 28.4 °F 19.7 °F 23.0 °F 80% 29.79 in 10.0 mi WNW 9.2 mph - N/A   Clear
3:15 AM 28.4 °F 19.7 °F 21.2 °F 74% 29.78 in 10.0 mi NW 9.2 mph - N/A   Clear
3:35 AM 26.6 °F 16.8 °F 21.2 °F 80% 29.80 in 10.0 mi WNW 10.4 mph - N/A   Clear
3:55 AM 24.8 °F 15.3 °F 19.4 °F 80% 29.80 in 10.0 mi WNW 9.2 mph - N/A   Clear
4:15 AM 26.6 °F 16.8 °F 21.2 °F 80% 29.80 in 10.0 mi West 10.4 mph - N/A   Clear
4:35 AM 26.6 °F 16.2 °F 21.2 °F 80% 29.82 in 10.0 mi WNW 11.5 mph - N/A   Clear
4:55 AM 24.8 °F 14.6 °F 21.2 °F 86% 29.83 in 10.0 mi WNW 10.4 mph - N/A   Clear
5:15 AM 24.8 °F 14.6 °F 19.4 °F 80% 29.82 in 10.0 mi West 10.4 mph - N/A   Clear
5:35 AM 23.0 °F 12.4 °F 19.4 °F 86% 29.83 in 10.0 mi WNW 10.4 mph - N/A   Clear
5:55 AM 24.8 °F 14.6 °F 19.4 °F 80% 29.83 in 10.0 mi West 10.4 mph - N/A   Clear
6:15 AM 23.0 °F 12.4 °F 19.4 °F 86% 29.84 in 10.0 mi West 10.4 mph - N/A   Clear
6:35 AM 21.2 °F 9.5 °F 17.6 °F 86% 29.84 in 10.0 mi West 11.5 mph - N/A   Clear
6:55 AM 21.2 °F 9.5 °F 17.6 °F 86% 29.84 in 10.0 mi West 11.5 mph - N/A   Clear
7:15 AM 23.0 °F 12.4 °F 19.4 °F 86% 29.85 in 10.0 mi WNW 10.4 mph - N/A   Clear
7:35 AM 21.2 °F 9.5 °F 17.6 °F 86% 29.85 in 9.0 mi WNW 11.5 mph - N/A   Clear
7:55 AM 21.2 °F 10.1 °F 17.6 °F 86% 29.86 in 9.0 mi WNW 10.4 mph - N/A   Clear
8:15 AM 21.2 °F 10.9 °F 19.4 °F 93% 29.86 in 9.0 mi WNW 9.2 mph - N/A   Clear
8:35 AM 21.2 °F 11.7 °F 17.6 °F 86% 29.87 in 9.0 mi WNW 8.1 mph - N/A   Clear
8:55 AM 23.0 °F 14.7 °F 19.4 °F 86% 29.89 in 9.0 mi NW 6.9 mph - N/A   Clear
9:15 AM 24.8 °F 17.9 °F 21.2 °F 86% 29.89 in 10.0 mi NW 5.8 mph - N/A   Clear
9:35 AM 30.2 °F 19.8 °F 24.8 °F 80% 29.91 in 10.0 mi NW 13.8 mph - N/A   Mostly Cloudy
9:55 AM 30.2 °F 20.8 °F 24.8 °F 80% 29.92 in 10.0 mi NNW 11.5 mph - N/A   Overcast
10:15 AM 30.2 °F 22.6 °F 24.8 °F 80% 29.93 in 10.0 mi WNW 8.1 mph - N/A   Overcast
10:35 AM 30.2 °F 22.6 °F 24.8 °F 80% 29.94 in 10.0 mi NW 8.1 mph - N/A   Overcast
10:55 AM 32.0 °F 22.5 °F 26.6 °F 80% 29.94 in 10.0 mi WNW 12.7 mph - N/A   Overcast
11:15 AM 32.0 °F 23.0 °F 26.6 °F 80% 29.95 in 10.0 mi WNW 11.5 mph - N/A   Overcast
11:35 AM 32.0 °F 21.6 °F 24.8 °F 75% 29.94 in 10.0 mi NW 15.0 mph 19.6 mph N/A   Overcast
11:55 AM 30.2 °F 21.3 °F 23.0 °F 75% 29.95 in 10.0 mi NW 10.4 mph - N/A   Mostly Cloudy
12:15 PM 32.0 °F 23.6 °F 24.8 °F 75% 29.94 in 10.0 mi WNW 10.4 mph - N/A   Partly Cloudy
12:35 PM 32.0 °F 22.1 °F 24.8 °F 75% 29.93 in 10.0 mi WNW 13.8 mph - N/A   Clear
12:55 PM 32.0 °F 22.5 °F 24.8 °F 75% 29.92 in 10.0 mi WNW 12.7 mph - N/A   Clear
1:15 PM 32.0 °F 22.5 °F 24.8 °F 75% 29.92 in 10.0 mi West 12.7 mph - N/A   Clear
1:35 PM 32.0 °F 23.0 °F 24.8 °F 75% 29.92 in 10.0 mi West 11.5 mph - N/A   Clear
1:55 PM 33.8 °F 24.3 °F 24.8 °F 70% 29.93 in 10.0 mi West 13.8 mph - N/A   Mostly Cloudy
2:15 PM 33.8 °F 24.8 °F 24.8 °F 70% 29.92 in 10.0 mi West 12.7 mph - N/A   Overcast
2:35 PM 32.0 °F 23.6 °F 24.8 °F 75% 29.93 in 10.0 mi West 10.4 mph - N/A   Overcast
2:55 PM 32.0 °F 23.6 °F 24.8 °F 75% 29.93 in 10.0 mi WNW 10.4 mph - N/A   Overcast
3:15 PM 32.0 °F 22.5 °F 24.8 °F 75% 29.94 in 10.0 mi West 12.7 mph - N/A   Mostly Cloudy
3:35 PM 32.0 °F 23.6 °F 24.8 °F 75% 29.95 in 10.0 mi West 10.4 mph - N/A   Overcast
3:55 PM 32.0 °F 24.2 °F 24.8 °F 75% 29.95 in 10.0 mi WNW 9.2 mph - N/A   Overcast
4:15 PM 32.0 °F 24.2 °F 24.8 °F 75% 29.95 in 10.0 mi WNW 9.2 mph - N/A   Overcast
4:35 PM 30.2 °F 22.6 °F 24.8 °F 80% 29.95 in 10.0 mi NW 8.1 mph - N/A   Overcast
4:55 PM 30.2 °F 23.4 °F 26.6 °F 86% 29.96 in 2.0 mi NNW 6.9 mph - N/A   Overcast
5:15 PM 30.2 °F 21.9 °F 26.6 °F 86% 29.96 in 1.8 mi NW 9.2 mph - N/A   Overcast
5:35 PM 30.2 °F 22.6 °F 26.6 °F 86% 29.97 in 2.0 mi NW 8.1 mph - N/A   Overcast
5:55 PM 30.2 °F 25.4 °F 26.6 °F 86% 29.97 in 2.0 mi NNW 4.6 mph - N/A   Overcast
6:15 PM 28.4 °F 20.4 °F 26.6 °F 93% 29.97 in 1.8 mi North 8.1 mph - N/A   Overcast
6:35 PM 24.8 °F 10.0 °F 21.2 °F 86% 29.99 in 1.8 mi NE 21.9 mph - N/A   Overcast
6:55 PM 21.2 °F 5.6 °F 19.4 °F 93% 30.01 in 1.5 mi NE 20.7 mph - N/A   Overcast
7:15 PM 19.4 °F 2.8 °F 15.8 °F 86% 30.02 in 1.8 mi NE 21.9 mph - N/A   Overcast
7:35 PM 19.4 °F 2.1 °F 12.2 °F 74% 30.03 in 1.5 mi NE 24.2 mph 32.2 mph N/A   Overcast
7:55 PM 17.6 °F -0.3 °F 12.2 °F 79% 30.04 in 2.0 mi NE 24.2 mph - N/A   Overcast
8:15 PM 17.6 °F 0.1 °F 12.2 °F 79% 30.05 in 2.0 mi NE 23.0 mph 29.9 mph N/A   Overcast
8:35 PM 15.8 °F -2.7 °F 10.4 °F 79% 30.07 in 2.0 mi NE 24.2 mph - N/A   Overcast
8:55 PM 15.8 °F -2.7 °F 10.4 °F 79% 30.08 in 2.0 mi NE 24.2 mph - N/A   Overcast
9:15 PM 15.8 °F -1.5 °F 10.4 °F 79% 30.10 in 2.5 mi NE 20.7 mph - N/A   Overcast
9:35 PM 14.0 °F -3.0 °F 10.4 °F 86% 30.11 in 3.0 mi NE 18.4 mph - N/A   Overcast
9:55 PM 14.0 °F -3.4 °F 8.6 °F 79% 30.11 in 2.0 mi NE 19.6 mph 25.3 mph N/A   Overcast
10:15 PM 14.0 °F -3.0 °F 8.6 °F 79% 30.12 in 1.2 mi NE 18.4 mph - N/A   Overcast
10:35 PM 12.2 °F -3.7 °F 8.6 °F 85% 30.15 in 1.5 mi NNE 15.0 mph - N/A   Overcast
10:55 PM 12.2 °F -7.9 °F 6.8 °F 79% 30.16 in 2.0 mi NNE 25.3 mph 29.9 mph N/A   Overcast
11:15 PM 12.2 °F -4.8 °F 8.6 °F 85% 30.17 in 2.0 mi NNE 17.3 mph - N/A   Overcast
11:35 PM 12.2 °F -4.3 °F 8.6 °F 85% 30.17 in 2.0 mi NNE 16.1 mph 21.9 mph N/A   Overcast
11:55 PM 12.2 °F -6.7 °F 8.6 °F 85% 30.19 in 1.0 mi North 21.9 mph 26.5 mph N/A   Overcast